Regional Weather Roundup
Issued by NWS

Home | Current Version | Previous Version | Text Only | Print | Product List | Glossary On
Versions: 1 2 3 4 5 6 7 8 9 10 11 12 13 14 15 16 17 18 19 20 21 22 23 24 25 26 27 28 29 30 31 32 33 34 35 36 37 38 39 40 41 42 43 44 45 46 47 48 49 50
000
ASUS44 KOUN 201000
RWROK

WEATHER ROUNDUP FOR OKLAHOMA
NATIONAL WEATHER SERVICE NORMAN OK
500 AM CDT WED AUG 20 2014

NOTE: "FAIR" INDICATES FEW OR NO CLOUDS BELOW 12,000 FEET WITH NO
      SIGNIFICANT WEATHER AND/OR OBSTRUCTIONS TO VISIBILITY.

OKZ001>007-009>012-014-015-017-201100-
NORTHWEST OKLAHOMA AND THE PANHANDLE

CITY           SKY/WX    TMP DP  RH WIND       PRES   REMARKS
GAGE           CLEAR     74  64  71 S10       29.86S
$$

OKZ016-021>023-033>039-044-045-201100-
SOUTHWEST OKLAHOMA

CITY           SKY/WX    TMP DP  RH WIND       PRES   REMARKS
LAWTON/REGL    CLEAR     80  61  52 SE9       29.87R
LAWTON/FT SILL PTCLDY    78  63  59 S9        29.86R
FREDERICK      CLEAR     78  62  57 SE10      29.84R
CLINTON        CLEAR     77  63  61 S13       29.89R
HOBART         MOCLDY    77  62  59 S12       29.88R
ALTUS AFB      CLOUDY    76  64  66 SE8       29.86R
$$

OKZ018>020-024>031-201100-
CENTRAL OKLAHOMA

CITY           SKY/WX    TMP DP  RH WIND       PRES   REMARKS
OKLAHOMA CITY  MOCLDY    74  67  78 S8        29.88R
OKC/WILEY POST PTCLDY    76  67  73 S10       29.88R
OKC/TINKER AFB CLEAR     74  67  79 S10       29.89R
STILLWATER     CLEAR     75  67  76 S9        29.86S
GUTHRIE        CLEAR     76  67  73 S9        29.86S
$$

OKZ008-013-054>072-201100-
NORTHEAST OKLAHOMA

CITY           SKY/WX    TMP DP  RH WIND       PRES   REMARKS
TULSA          CLEAR     78  70  76 S7        29.87R
TULSA/JONES    CLEAR     74  70  87 CALM      29.88R
PONCA CITY     CLEAR     76  68  76 S9        29.85S
BARTLESVILLE   CLEAR     69  68  96 CALM      29.88S
MUSKOGEE       CLEAR     73  70  90 SE8       29.91R
$$

OKZ032-040>043-046>053-073>077-201100-
SOUTH CENTRAL/SOUTHEAST OKLAHOMA

CITY           SKY/WX    TMP DP  RH WIND       PRES   REMARKS
MCALESTER      CLEAR     75  68  78 S5        29.92R
$$



USA.gov is the U.S. government's official web portal to all federal, state and local government web resources and services.